Location: Gleizolles
(44.4833°N, 6.7667°E)
Time: 00:35:40
(UTC+00:00)

Vanguard 2 Rocket - Pass Details

Date: 20 June 2024
Orbit: 555 x 3302 km, 32.9° (Epoch: 24 July)

Event Time Altitude Azimuth Distance (km) Brightness Sun altitude
Rises 07:00:40 0° 272° (W) 7,092 10.9 31.2°
Reaches altitude 10° 07:06:11 10° 266° (W) 5,818 10.6 32.2°
Maximum altitude 07:20:56 40° 206° (SSW) 2,916 9.6 34.9°
Drops below altitude 10° 07:30:14 10° 141° (SE) 3,698 10.6 36.5°
Sets 07:32:55 0° 133° (SE) 4,362 11.0 37.0°
